Санд-Сити

США     36°37′50″N   121°50′24″W
темп.,
°C
ветер,
м/с
пор.,
м/с
влажн.,
%
обл.,
%
осадки,
мм/ч
давл.,
гПа
погр.,
м
16 октября, сб
сб1623:00+15в22320 0.0 101817
02:00+14в22320 0.0 101820
05:00+14в22310 0.0 101728
08:00+14всв33320 0.0 101653
11:00+27всв33160 0.0 1015597
14:00+26зюз56190 0.0 1013430
17:00+19з36420 0.0 1014223
20:00+12юв2272100 0.0 101519
17 октября, вс
вс1723:00+13вюв22475 0.0 101514
02:00+12вюв22380 0.0 101414
05:00+11в1135100 0.0 101314
08:00+13св1131100 0.0 101316
11:00+19з34385 0.0 1014646
14:00+19зюз794916 0.0 1011621
17:00+16зюз8137428 0.0 1012716
20:00+14зюз6108599 0.2 1013785
18 октября, пн
пн1823:00+12юз258782 1.7 1016282
02:00+10з248714 0.5 1016108
05:00+10з23886 0.6 1017100
08:00+9всв11885 0.0 101886
11:00+15зсз22600 0.0 1018937
14:00+16з545313 0.0 10171198
17:00+14зюз45614 0.0 1016487
20:00+10ююв23835 0.0 101663
19 октября, вт
вт1923:00+8вюв22900 0.0 101746
02:00+7всв22850 0.0 101636
05:00+7всв22810 0.0 101637
08:00+8в22700 0.0 101656
11:00+17з22381 0.0 1017708
14:00+16з455367 0.0 1016576
17:00+15з46594 0.0 1016507
20:00+10в1186100 0.0 101715
20 октября, ср
ср2023:00+9вюв2285100 0.0 101727
02:00+8в2378100 0.0 101850
05:00+11в2360100 0.0 101873
08:00+12в2351100 0.0 101880
11:00+19ю0129100 0.0 1019436
14:00+20з533510 0.0 1019551
17:00+17зсз346068 0.0 1018230
20:00+13ссв118636 0.0 101916